OBJECT B, 59918

Orbit data source: Space-Track

You're viewing an Uncataloged Satellite

Recently launched and/or uncataloged satellites may have evolving metadata. Metadata may include but not limited to: Owner, Maufacturer, Bus, Motor, and Mission.

OBJECT B, 59918 is a Chinese satellite in SSO that was launched on Thu, 30 May 2024 UTC via a GUSHENXING 1 launch vehicle from the Jiuquan Satellite Launch Center, China (JSC). Unknown objects in Earth's orbit typically refer to objects detected orbiting the Earth but have not yet been identified or cataloged. These objects could be anything from previously untracked satellites, spent rocket stages, debris from satellite collisions, or even natural meteoroids temporarily captured by Earth's gravity.

Loading next visibility...
Identifier
59918, 2024-105B
Orbit
SSO
Country
Flag of CNCN / PRC
Related business
None
Manufacturer
Unknown
Mission
Operational Commercial Technology
Bus & Motor
Unknown
Mass
Unknown
Launch date (UTC)
2024-05-30 (2 years ago)
Launch vehicle
GUSHENXING 1
Launch site
Jiuquan Satellite Launch Center, China (JSC)
Object type
Unknown
Shape & HBR
Box + 1 Pan, 2.5 m
Radar Cross Section
5.339 m², Medium (>0.1 m² and < 1m²)

Expand to show TLE details & history
Last TLE update: 22 hours ago

TLE from 22 hours ago
0 OBJECT B
1 59918U 24105B   26172.49929828  .00005642  00000-0  27106-3 0  9999
2 59918  97.5820 187.9692 0010788 222.1880 137.8525 15.19193865113705
Epoch: 2026-06-21T11:58Z
TLE epoch observation values (Epoch: 2026-06-21T11:58:59.371Z)
Latitude
-0.00001°
Longitude
98.52313°
Altitude
516.873 km
Speed
7.602 km/s
True Right ascension
12h 31m 52s
True Declination
0° 00' 00"
Sunlit
Object was in daylight at epoch
Visualization orbit readout
Latitude
Unknown
Longitude
Unknown
Altitude
Unknown
Speed
Unknown
Apparent Right ascension
Unknown
Apparent Declination
Unknown
Sunlit
N/A
Visualization observer readout
Local Sidereal Time
21:30:41
Azimuth
Unknown
Elevation
Unknown
Doppler factor
Unknown
Orbital elements
Apogee altitude
512.676 km
Perigee altitude
497.824 km
Semi-major axis
6,883.387 km
Eccentricity
0.00108
Inclination
97.582°
RAAN
187.9692°
Arg. of periapsis
222.188°
True anomaly
137.93537°
Mean anomaly
137.8525°
Eccentric anomaly
137.89394°
Mean motion
3.80049 °/min
Orbital period
94.72 mins
BSTAR
0.00027106
Loading maneuver chart data...
Computing Atmospheric mass density...
Loading historical data...
Loading historical data...
Loading historical data...
Loading historical data...
Loading historical data...
Loading historical data...
Loading historical data...
Other satellites on launch #105 in the year 2024 (2024-05-30 UTC)

Documentation

Showing up to 5 results
|